Location: Ertinghausen
(51.6624°N, 9.7874°E)
Time: 17:25:04
(UTC+00:00)

Cosmos 1850 Rocket - Pass Details

Date: 23 May 2024
Orbit: 753 x 782 km, 74.0° (Epoch: 23 June)

Event Time Altitude Azimuth Distance (km) Brightness Sun altitude
Exits shadow 01:46:19 14° 211° (SSW) 2,042 5.5 -10.7°
Maximum altitude 01:50:52 75° 296° (WNW) 803 4.1 -10.3°
Drops below altitude 10° 01:56:08 10° 23° (NNE) 2,320 7.9 -9.8°
Sets 01:58:32 0° 25° (NNE) 3,246 9.1 -9.6°
